Location: Huppendorf
(49.9333°N, 11.1500°E)
Time: 18:22:15
(UTC+00:00)

STARLINK-56 - Pass Details

Date: 27 February 2020
Orbit: 529 x 530 km, 53.0° (Epoch: 01 April)

Event Time Altitude Azimuth Distance (km) Brightness Sun altitude
Rises 17:59:15 0° 274° (W) 2,668 9.3 -11.4°
Reaches altitude 10° 18:01:31 10° 279° (W) 1,779 7.7 -11.7°
Maximum altitude 18:05:28 54° 357° (N) 651 4.0 -12.4°
Enters shadow 18:08:13 19° 70° (ENE) 1,318 5.0 -12.8°
